RASSVET-3 14

Last updated on Sun Apr 12 2026 00:02:09 GMT+0000 (Coordinated Universal Time)

1 68373U 26061P 26101.35754427 .00097240 22041-5 30787-3 0 9993 2 68373 82.2968 87.5857 0022636 4.6896 355.4584 15.90672061 2964
UTC large
Height (km)
Speed (km/s)
/
Latitude / Longitude
Inclination (degrees)
Orbital Period (minutes)
Azimuth
Elevation
Range (km)
Doppler Factor

Next 0 passes for location: London (51.5072 / 0.1276)

Sorry there are no passes over London.
RASSVET-3 14